Regional Weather Roundup
Issued by NWS

Home | Current Version | Previous Version | Text Only | Print | Product List | Glossary On
Versions: 1 2 3 4 5 6 7 8 9 10 11 12 13 14 15 16 17 18 19 20 21 22 23 24 25 26 27 28 29 30 31 32 33 34 35 36 37 38 39 40 41 42 43 44 45 46 47 48 49 50
000
ASUS43 KTOP 291508
RWRKS

WEATHER ROUNDUP FOR KANSAS
NATIONAL WEATHER SERVICE GOODLAND KS
1000 AM CDT WED JUL 29 2015

NOTE:  "FAIR" INDICATES FEW OR NO CLOUDS BELOW 12,000 FEET WITH NO
SIGNIFICANT WEATHER AND/OR OBSTRUCTIONS TO VISIBILITY.

KSZ001>006-013>018-027>032-041>047-291600-
NORTHWEST KANSAS

CITY           SKY/WX    TMP DP  RH WIND       PRES   REMARKS
GOODLAND       PTSUNNY   71  50  47 E15G23    30.28S
HAYS           CLOUDY    70  55  60 NE18      30.17F
HILL CITY      MOSUNNY   73  59  61 E17G23    30.22F
RUSSELL        LGT RAIN  68  61  78 NE14      30.15F
$$

KSZ061>065-074>080-084>089-291600-
SOUTHWEST KANSAS

CITY           SKY/WX    TMP DP  RH WIND       PRES   REMARKS
DODGE CITY     CLOUDY    68  58  70 E24G30    30.17R
ELKHART          N/A     66  56  70 NE7         N/A
GARDEN CITY    CLOUDY    69  56  62 NE14      30.21R
GREAT BEND     CLOUDY    68  63  83 E6        30.18R
LIBERAL        CLOUDY    70  52  52 NE10      30.21R
PRATT          PTSUNNY   66  63  88 NE14      30.17F
$$

KSZ066>073-081>083-090>101-291600-
SOUTHEAST KANSAS

CITY           SKY/WX    TMP DP  RH WIND       PRES   REMARKS
CHANUTE        SUNNY     82  69  64 E9        30.11F
COFFEYVILLE    SUNNY     86  72  62 NE10      30.09S
HUTCHINSON     CLOUDY    70  66  87 N10       30.16F
MEDICINE LODGE   N/A     74  67  78 NE18G28   30.14R
NEWTON         CLOUDY    72  64  78 N7        30.21S
PARSONS        SUNNY     84  70  62 VRB6      30.12R
WICHITA INTL   LGT RAIN  74  69  85 NE16      30.14S
WICHITA JABRA  CLOUDY    74  67  78 NE12      30.16R
WICHITA MCCONL PTSUNNY   77  67  70 NE13      30.15R
WINFIELD       MOSUNNY   84  67  56 E15G23    30.11S
$$

KSZ007>012-019>026-033>040-048>060-102>105-291600-
NORTHEAST KANSAS

CITY           SKY/WX    TMP DP  RH WIND       PRES   REMARKS
CONCORDIA      PTSUNNY   71  64  78 W7        30.23R
EMPORIA        LGT RAIN  72  69  90 SE12      30.10F
LAWRENCE       CLOUDY    72  69  90 NE3       30.12F
MANHATTAN      CLOUDY    72  70  93 NW5       30.18R
MARYSVILLE     PTSUNNY   72  66  83 N6        30.19S
OLATHE IND     CLOUDY    71  69  93 NE13      30.12F
OLATHE EXE     LGT RAIN  71  70  96 N13       30.13S
SALINA         CLOUDY    71  66  84 NW14      30.19F
TOPEKA BILLARD CLOUDY    74  71  91 NW7       30.14R
TOPEKA FORBES  CLOUDY    74  69  85 N9        30.13R
$$


USA.gov is the U.S. government's official web portal to all federal, state and local government web resources and services.